Tracking 29088 objects as of 13-Jul-2024
HD Live streaming from Space Station
objects crossing your sky now

COSMOS 2133

Track COSMOS 2133 now!
COSMOS 2133 is classified as:


NORAD ID: 21111
Int'l Code: 1991-010A
Perigee: 35,761.5 km
Apogee: 35,831.3 km
Inclination: 13.7 °
Period: 1,436.2 minutes
Semi major axis: 42167 km
RCS: 12.1 m2 (large)
Launch date: February 14, 1991
Source: Commonwealth of Independent States (former USSR) (CIS)
Launch site: TYURATAM MISSILE AND SPACE COMPLEX (TTMTR)
Your satellite tracking list
Your tracking list is empty




NASA's NSSDC Master Catalog

Two Line Element Set (TLE):
1 21111U 91010A   24194.43122487 -.00000133  00000-0  00000-0 0  9996
2 21111  13.7173 347.7536 0008283 161.0888  15.4275  1.00262335122379
Source of the keplerian elements: AFSPC